Weather Service Report


426 
ASUS41 KCLE 110212
RWRCLE
OHIO REGIONAL WEATHER ROUNDUP
NATIONAL WEATHER SERVICE WILMINGTON, OH
900 PM EST SAT DEC 10 2016

NOTE: "FAIR" INDICATES FEW OR NO CLOUDS BELOW 12,000 FEET WITH NO
SIGNIFICANT WEATHER AND/OR OBSTRUCTIONS TO VISIBILITY.

OHZ001>008-015>018-024>027-034-035-043-044-110300-
   NORTHWEST OHIO
  
CITY           SKY/WX    TMP DP  RH WIND       PRES   REMARKS
DEFIANCE       CLOUDY    26  16  65 S3        30.42F                  
FINDLAY        CLOUDY    26  16  65 SW5       30.41F WCI  20          
TOLEDO EXPRESS CLOUDY    24  16  71 SW3       30.41F                  
TOLEDO EXEC    MOCLDY    25  17  72 SW6       30.43F WCI  18          
LIMA           CLOUDY    24  17  74 S3        30.41F                  
$$
 
OHZ009>014-019>023-028>033-038-089-110300-
   NORTHEAST OHIO
  
CITY           SKY/WX    TMP DP  RH WIND       PRES   REMARKS
CLE-HOPKINS    MOCLDY    25  14  63 S7        30.46S WCI  17          
CLE-LAKEFRONT  MOCLDY    25  15  66 S7        30.44F WCI  17          
CUY CO. ARPT   CLOUDY    25  16  68 SW9       30.42F WCI  15          
LORAIN-ELYRIA  FAIR      24  15  68 SW7       30.43F WCI  16          
ASHTABULA      CLOUDY    23  14  68 SW14      30.41F WCI  11          
AKRON-CANTON   CLOUDY    24  14  65 SW8       30.41F WCI  15          
WOOSTER        CLOUDY    24  16  71 S7        30.42F WCI  16          
MANSFIELD      CLOUDY    23  16  74 S6        30.39F WCI  16          
YOUNGSTOWN     FLURRIES  24  14  65 SW8       30.41F WCI  15          
$$
 
OHZ042-051>053-060>062-070>072-077>081-110300-
  SOUTHWEST OHIO
  
CITY           SKY/WX    TMP DP  RH WIND       PRES   REMARKS
CINC-COVINGTON CLOUDY    28  18  66 SE3       30.43F                  
CINC-LUNKEN    FAIR      29  19  66 CALM      30.47F                  
HAMILTON       FAIR      29  18  63 CALM      30.46F                  
DAYTON         CLOUDY    26  16  65 S6        30.42F WCI  19          
WRIGHT-PAT AFB FAIR      26  17  66 SE5       30.42F WCI  21          
DAYTON GENERAL CLOUDY    26  17  68 S3        30.42F                  
WILMINGTON     CLOUDY    26  18  71 S5        30.42F WCI  20          
$$

OHZ036-037-039>041-045>050-054>059-063>069-073>076-082>088-110300-
  CENTRAL AND SOUTHEAST OHIO
  
CITY           SKY/WX    TMP DP  RH WIND       PRES   REMARKS
COLUMBUS       CLOUDY    26  17  68 S5        30.43F WCI  20          
OSU AIRPORT    CLOUDY    25  16  68 S5        30.42F WCI  19          
BOLTON FIELD   CLOUDY    25  19  78 CALM      30.43F                  
RICKENBACK AFB   N/A     25  19  80 SE3       30.43F                  
NEWARK         MOCLDY    24  16  71 S5        30.43F WCI  18          
MARION         CLOUDY    24  17  74 S3        30.42F                  
LANCASTER      CLOUDY    25  21  85 CALM      30.44F                  
ZANESVILLE     CLOUDY    24  17  74 SE5       30.44F WCI  18          
NEW PHILLY     CLOUDY    25  19  78 S3        30.45F                  
$$
  

Return to Home page


Western Regional Climate Center, wrcc@dri.edu